Location: Beetenbrück
(52.8113°N, 9.5946°E)
Time: 21:24:10
(UTC+00:00)

Cosmos 1869 Rocket - Pass Details

Date: 14 April 2026
Orbit: 598 x 625 km, 82.5° (Epoch: 12 May)

Event Time Altitude Azimuth Distance (km) Brightness Sun altitude
Rises 19:36:44 0° 187° (S) 2,871 6.7 -11.4°
Reaches altitude 10° 19:38:56 10° 187° (S) 1,975 5.9 -11.7°
Maximum altitude 19:43:19 85° 99° (E) 630 3.5 -12.2°
Drops below altitude 10° 19:47:46 10° 12° (NNE) 2,005 6.5 -12.8°
Sets 19:50:01 0° 12° (NNE) 2,919 7.4 -13.0°
